Regional Weather Roundup
Issued by NWS

Home | Current Version | Previous Version | Graphics & Text | Print | Product List | Glossary On
Versions: 1 2 3 4 5 6 7 8 9 10 11 12 13 14 15 16 17 18 19 20 21 22 23 24 25 26 27 28 29 30 31 32 33 34 35 36 37 38 39 40 41 42 43 44 45 46 47 48 49 50
000
ASUS43 KDMX 231006
RWRIA

WEATHER ROUNDUP FOR IOWA
NATIONAL WEATHER SERVICE DES MOINES IA
500 AM CDT SAT SEP 23 2017

NOTE: "FAIR" INDICATES FEW OR NO CLOUDS BELOW 12,000 FEET WITH NO
SIGNIFICANT WEATHER AND/OR OBSTRUCTIONS TO VISIBILITY.

* - THESE STATIONS ARE NOT NWS STATIONS...THUS NOT UNDER NWS
QUALITY CONTROL.  THEY ALSO DO NOT REPORT WEATHER SUCH
AS PRECIPITATION OR FOG.

IAZ001>003-012>014-020>022-031>034-043>046-231100-
   NORTHWEST IOWA

CITY           SKY/WX    TMP DP  RH WIND       PRES   REMARKS
CARROLL *      CLEAR     66  66 100 S5        29.95R
CHEROKEE *     PTCLDY    70  68  95 S6        29.90S
DENISON *      CLEAR     72  68  88 S8G15     29.94S
LE MARS *      PTCLDY    73  68  83 S8        29.88S
ORANGE CITY *  PTCLDY    72  70  94 S7        29.89S
SHELDON *      PTCLDY    70  68  94 S8        29.87S
SIOUX CITY     CLEAR     71  69  93 SE8       29.88S
SPENCER        CLEAR     69  67  93 S8        29.91S
STORM LAKE *   PTCLDY    70  66  88 S8        29.93S
$$

IAZ055>058-069>071-079>083-090>094-231100-
   SOUTHWEST IOWA

CITY           SKY/WX    TMP DP  RH WIND       PRES   REMARKS
ATLANTIC *     CLEAR     72  68  88 S7        29.95R
AUDUBON *      CLEAR     72  66  83 S5        29.96R
CLARINDA *     CLEAR     70  68  94 S5        29.97R
COUNCIL BLFS * CLEAR     73  70  88 S9        29.93R
CRESTON *      CLEAR     70  68  94 S8        29.98R
HARLAN  *      CLEAR     70  68  94 S6        29.97S
LAMONI         CLEAR     71  67  87 S6        29.98R
RED OAK *      CLEAR     72  68  88 S3        29.94R
SHENANDOAH *   CLEAR     72  68  88 S8        29.94R
$$

IAZ047>049-059>061-072>074-084-231100-
   CENTRAL IOWA

CITY           SKY/WX    TMP DP  RH WIND       PRES   REMARKS
AMES           CLEAR     68  67  96 S6        29.96R
ANKENY *       CLEAR     70  66  88 CALM      29.98R
BOONE *        CLEAR     70  66  88 S7        29.96R
CHARITON *     CLEAR     68  66  94 SE6       29.98S
DES MOINES     CLEAR     72  67  84 S7        29.96R
GRINNELL*      CLEAR     67  64  88 SE3       30.00S
KNOXVILLE *    CLEAR     70  64  83 CALM      29.97S
MARSHALLTOWN   CLEAR     68  66  93 SE6       29.97R
NEWTON *       CLEAR     66  64  94 S8        29.99R
PELLA *        CLEAR     69  64  84 SE3       30.00R
PERRY *          N/A     70  68  95 S6        29.96R
$$

IAZ004>006-015-016-023>025-035-036-231100-
   NORTH CENTRAL IOWA

CITY           SKY/WX    TMP DP  RH WIND       PRES   REMARKS
ALGONA *       CLEAR     70  70 100 S7        29.94R
CLARION *      CLEAR     70  70 100 S10       29.95S
ESTHERVILLE    CLEAR     68  68 100 S10       29.90S
FORT DODGE *   CLEAR     73  67  81 S10       29.95R
MASON CITY     CLEAR     69  66  90 S8        29.98R
FOREST CITY *    N/A     66  64  94 SE3       29.96R
WEBSTER CITY * CLEAR     68  66  94 S6        29.94R
IOWA FALLS *     N/A     68  66  92 SE6       29.99R
$$

IAZ007>011-017>019-026>030-037>042-050>054-066-231100-
   NORTHEAST IOWA

CITY           SKY/WX    TMP DP  RH WIND       PRES   REMARKS
CEDAR RAPIDS   CLEAR     69  63  81 SE5       30.00R
CHARLES CITY * CLEAR     70  68  94 S6        29.99R
CLINTON *      CLEAR    N/A N/A N/A S5        30.02R
DECORAH *      CLEAR     70  64  83 S6        29.99R
DUBUQUE        CLEAR     67  63  87 S5        30.03R
MONTICELLO *   CLEAR     63  61  94 CALM      30.01R
OELWEIN *      CLEAR     66  66 100 S8        30.01R
WATERLOO       CLEAR     69  64  84 S6        29.98R
$$

IAZ064-065-067-068-078-231100-
   EAST CENTRAL IOWA

CITY           SKY/WX    TMP DP  RH WIND       PRES   REMARKS
DAVENPORT      CLEAR     67  63  87 S7        30.04R
IOWA CITY      CLEAR     67  63  87 CALM      30.02R
MT. PLEASANT * CLEAR     68  61  79 E5        30.01R
MUSCATINE *    CLEAR     64  63  94 CALM      30.01S
QUAD CITIES    CLEAR     71  63  75 CALM      30.01R
$$

IAZ062-063-075>077-085>089-095>099-231100-
   SOUTHEAST IOWA

CITY           SKY/WX    TMP DP  RH WIND       PRES   REMARKS
BURLINGTON     CLEAR     69  64  84 SE3       30.01R
FAIRFIELD *    CLEAR     70  63  78 SE5       29.99S
FORT MADISON * CLEAR     73  63  68 S7        30.02R
KEOKUK *       CLEAR     68  64  88 E6        30.00R
OSKALOOSA *      N/A     66  64  91 SE6       30.00R
OTTUMWA        CLEAR     68  64  87 S5        29.98S
WASHINGTON *   CLEAR     66  64  94 S3        30.01S
$$

ABBREVIATIONS USED IN REMARKS
   TC - TEMPERATURES IN CELSIUS
  WCI - WIND CHILL INDEX
   HX - HEAT INDEX
  VSB - VISIBILITY
$$





USA.gov is the U.S. government's official web portal to all federal, state and local government web resources and services.